Regional Weather Roundup
Issued by NWS

Home | Current Version | Previous Version | Text Only | Print | Product List | Glossary Off
Versions: 1 2 3 4 5 6 7 8 9 10 11 12 13 14 15 16 17 18 19 20 21 22 23 24 25 26 27 28 29 30 31 32 33 34 35 36 37 38 39 40 41 42 43 44 45 46 47 48 49 50

000
ASUS43 KMKX 202011
RWRWI

WISCONSIN REGIONAL WEATHER ROUNDUP
NATIONAL WEATHER SERVICE MILWAUKEE/SULLIVAN WI
300 PM CDT WED SEP 20 2017

NOTE: "FAIR" INDICATES FEW OR NO CLOUDS BELOW 12,000 FEET WITH NO
SIGNIFICANT WEATHER AND/OR OBSTRUCTIONS TO VISIBILITY.

WIZ001-002-006>008-014>016-023>028-202100-
NORTHWEST WISCONSIN

CITY           SKY/WX    TMP DP  RH WIND       PRES   REMARKS
SUPERIOR ARPT  PTSUNNY   74  57  56 W10G18    29.76R
ASHLAND        CLOUDY    74  62  66 SW15G24   29.76R
HAYWARD        CLOUDY    72  60  66 SW7       29.79S
SIREN          SUNNY     74  55  51 W10       29.80R
CUMBERLAND     SUNNY     72  55  56 W8        29.81R
RICE LAKE      CLOUDY    74  57  56 W8        29.82R
CHETEK         CLOUDY    73  62  68 NW7       29.80R
LADYSMITH      PTSUNNY   73  65  76 W13       29.81R
EAU CLAIRE     CLOUDY    75  64  68 NW14      29.79R
MENOMONIE      CLOUDY    73  61  66 W9G16     29.81R
NEW RICHMOND   SUNNY     75  53  45 W7        29.82R
OSCEOLA        SUNNY     75  54  47 W9        29.84R
$$

WIZ003>005-009-010-017-018-202100-
NORTH CENTRAL WISCONSIN

CITY           SKY/WX    TMP DP  RH WIND       PRES   REMARKS
MANITOWISH WTR CLOUDY    66  66 100 SW8       29.81R FOG
ARBOR VITAE    CLOUDY    69  67  92 S9        29.81R
WOODRUFF       CLOUDY    69  67  92 S9        29.81R
RHINELANDER    CLOUDY    68  67  96 S7        29.83S FOG
EAGLE RIVER    CLOUDY    67  65  95 S7        29.82S FOG
LAND O LAKES   CLOUDY    67  64  90 S7        29.83S FOG
PHILLIPS       CLOUDY    68  67  97 S6        29.80S
TOMAHAWK         N/A     68  65  89 CALM      29.82S
MEDFORD        CLOUDY    72  67  84 S9        29.81S
MERRILL          N/A     72  70  94 SE6       29.82S
$$

WIZ029-030-035-036-043>047-202100-
CENTRAL WISCONSIN

CITY           SKY/WX    TMP DP  RH WIND       PRES   REMARKS
WAUSAU         CLOUDY    73  68  84 S7        29.80R
MOSINEE        CLOUDY    73  70  88 S6        29.83R
MARSHFIELD     RAIN      73  68  84 SE5       29.79F
STEVENS POINT  CLOUDY    75  70  84 NW3       29.81R
WAUPACA        PTSUNNY   87  69  54 SE13G21   29.78S HX  91
WAUTOMA        PTSUNNY   86  72  62 S14       29.77F HX  92
WISC RAPIDS    CLOUDY    79  70  74 SW6       29.81R HX  82
CAMP DOUGLAS   CLOUDY    81  70  69 SW6       29.78F HX  84
$$

WIZ011>013-019>022-031-037>040-048>050-202100-
NORTHEAST WISCONSIN

CITY           SKY/WX    TMP DP  RH WIND       PRES   REMARKS
ANTIGO         CLOUDY    70  68  94 S3        29.84R
SHAWANO        MOSUNNY   82  68  62 S12       29.79S HX  84
OCONTO         SUNNY     77  66  69 S13G20    29.81S
STURGEON BAY   CLOUDY    75  65  70 S18G31    29.83F
GREEN BAY      SUNNY     81  68  64 S15G24    29.81F HX  84
MANITOWOC      CLOUDY    73  66  78 S25G32    29.85F
APPLETON       MOSUNNY   81  64  57 SE15G24   29.79F HX  82
CLINTONVILLE   MOSUNNY   81  64  57 S15G22    29.78F HX  82
OSHKOSH        SUNNY     84  70  62 SE17      29.79S HX  88
$$

WIZ032>034-041-042-053>061-202100-
SOUTHWEST WISCONSIN

CITY           SKY/WX    TMP DP  RH WIND       PRES   REMARKS
LA CROSSE      CLOUDY    83  70  64 W6        29.76S HX  87
SPARTA         CLOUDY    79  70  74 S3        29.78F HX  82
VIROQUA        PTSUNNY   80  72  75 S7        29.80F HX  84
BOSCOBEL       CLOUDY    87  70  56 VRB5      29.78R HX  92
PRAIRIE DU CHI CLOUDY    85  67  56 SW5       29.78R HX  87
PLATTEVILLE    PTSUNNY   88  71  57 S17       29.80S HX  93
$$

WIZ056-057-062-063-064-067-068-202100-
SOUTH CENTRAL WISCONSIN

CITY           SKY/WX    TMP DP  RH WIND       PRES   REMARKS
REEDSBURG      CLOUDY    87  71  58 SW12G18   29.77S HX  92
BARABOO/DELLS  NOT AVBL
LONE ROCK      PTSUNNY   88  72  58 S13G24    29.77S HX  94
MINERAL POINT  MOSUNNY   90  72  55 S17       29.80S HX  96
MADISON        MOSUNNY   90  70  51 S16G25    29.78F HX  95
MIDDLETON      MOSUNNY   91  68  47 S15G26    29.79F HX  94
WATERTOWN      SUNNY     89  69  51 S14G24    29.80F HX  93
MONROE         SUNNY     88  66  48 S24G33    29.80F HX  90
JANESVILLE     MOSUNNY   91  66  43 S17G26    29.81F HX  94
$$

WIZ051-052-058>065-066-070>072-202100-
SOUTHEAST WISCONSIN

CITY           SKY/WX    TMP DP  RH WIND       PRES   REMARKS
MILWAUKEE      MOSUNNY   82  69  64 SE15      29.84F HX  85
WAUKESHA       MOSUNNY   86  66  51 S13G24    29.85F HX  88
MILWAUKEE/TIMM SUNNY     81  64  57 SE7       29.85F HX  82
RACINE         SUNNY     80  69  69 SE14G23   29.87F HX  83
BURLINGTON     SUNNY     92  70  48 S14G21    29.83F HX  97
KENOSHA        SUNNY     87  69  54 SE15      29.85F HX  91
FOND DU LAC    SUNNY     85  67  54 SE15G26   29.79F HX  87
SHEBOYGAN      SUNNY     75  69  81 SE16G25   29.85F
WEST BEND        N/A     79  68  69 SE13      29.83F HX  81
JUNEAU         SUNNY     87  69  55 SE23G29   29.81F HX  91
$$

LSZ147-162-202100-
LAKE SUPERIOR

STATION/POSITION TIME  TEMP    WIND        PRES    WAVE
                       AIR SEA DIR/SP/G            HT/PER
                 (UTC) (F)     (DEG/KT/KT) (MB)    (FT/S)
W MID LAKE BUOY  1950   61 55  190/ 10/ 12 1006.2R   2/ 4
DEVILS ISLAND    2000   65     230/ 21/ 23 1006.6R
PORT WING        1840   76     250/ 11/ 16 1006.8
SAXON HARBOR     1930   75     180/  5/ 17 1006.4S
$$

LMZ867-665-643>646-202100-
LAKE MICHIGAN

STATION/POSITION TIME  TEMP    WIND        PRES    WAVE
                       AIR SEA DIR/SP/G            HT/PER
                 (UTC) (F)     (DEG/KT/KT) (MB)    (FT/S)
S GREEN BAY BUOY 2000   72 66  160/ 17/ 21 1009.1
N MID LAKE BUOY  1950   66 65  150/  6/  6 1011.8R   2/ 4
NORTHPORT PIER   1940   68     150/ 11/ 17 1010.5F
KEWAUNEE LAKESHO 1942   63     180/ 11/ 12 1010.3F
SHEBOYGAN LAKESH 2000   67     170/ 17/ 18 1010.2F
PORT WASHINGTON  1940   73     170/  8/ 11 1011.9F
ATWATER BUOY     1909   70 68  160/ 16/ 19 1011.2F
MILWAUKEE LAKESH 1950   69     150/ 13/ 14   N/A
S MID LAKE BUOY  1950   72 69  120/ 14/ 16 1012.0F   2/ 3
KENOSHA   LAKESH 2000   73     170/ 15/ 17 1010.8
$$

TC  - TEMPERATURE IN CELSIUS
VSB - VISIBILITY IN STATUTE MILES
WCI - WIND CHILL INDEX
HX  - HEAT INDEX




USA.gov is the U.S. government's official web portal to all federal, state and local government web resources and services.